Weather History for Amarillo, TX

Change the Weather History Date:

Tuesday, December 31, 2013

  Actual Average Record
Temperature  
Mean Temperature 43 °F 36 °F  
Max Temperature 60 °F 49 °F 75 °F (1909)
Min Temperature 25 °F 23 °F -2 °F (1918)
Degree Days  
Heating Degree Days 22 29  
Month to date heating degree days 903 873  
Since 1 July heating degree days 1741 1717  
Cooling Degree Days 0 0  
Month to date cooling degree days 0 0  
Year to date cooling degree days 1806 1399  
Moisture  
Dew Point 17 °F    
Average Humidity 45    
Maximum Humidity 74    
Minimum Humidity 16    
Precipitation  
Precipitation 0.00 in 0.02 in 0.30 in (1947)
Month to date precipitation 0.32 0.71  
Year to date precipitation 15.20 20.36  
Snow  
Snow 0.00 in 0.10 in 3.10 in (1947)
Month to date snowfall 2.2 3.7  
Since 1 July snowfall 6.5 6.4  
Snow Depth 0.00 in    
Sea Level Pressure  
Sea Level Pressure 30.14 in    
Wind  
Wind Speed 17 mph (SSW)    
Max Wind Speed 32 mph    
Max Gust Speed 40 mph    
Visibility 10 miles    
Events      
T = Trace of Precipitation, MM = Missing Value Source: NWS Daily Summary

Daily Weather History Graph

Daily Weather History Graph

Search for Another Location

Airport:

Trip Planner

Search our weather history database for the weather conditions in past years. The results will help you decide how hot, cold, wet, or windy it might be!

Date:

Astronomy

Dec. 31, 2013 Rise Set
Actual Time 7:55 AM CST 5:44 PM CST
Civil Twilight 7:27 AM CST 6:13 PM CST
Nautical Twilight 6:55 AM CST 6:44 PM CST
Astronomical Twilight 6:24 AM CST 7:15 PM CST
Moon 6:51 AM CST (12/31) 5:21 PM CST (12/31)
Length of Visible Light 10h 46m
Length of Day
9h 49m
Waning Crescent, 1% of the Moon is Illuminated
Dec 31
Waning Crescent
Jan 1
New
Jan 7
First Quarter
Jan 15
Full
Jan 23
Last Quarter

Hourly Weather History & Observations

Time (CST) Temp. Windchill Dew Point Humidity Pressure Visibility Wind Dir Wind Speed Gust Speed Precip Events Conditions
12:53 AM 27.0 °F 16.7 °F 17.1 °F 66% 30.36 in 10.0 mi SSW 11.5 mph - N/A   Clear
1:53 AM 27.0 °F 16.7 °F 18.0 °F 69% 30.34 in 10.0 mi SSW 11.5 mph - N/A   Clear
2:53 AM 27.0 °F 16.7 °F 17.1 °F 66% 30.33 in 10.0 mi SSW 11.5 mph - N/A   Clear
3:53 AM 25.0 °F 13.6 °F 17.1 °F 72% 30.31 in 10.0 mi SSW 12.7 mph - N/A   Clear
4:53 AM 28.0 °F 17.0 °F 18.0 °F 66% 30.29 in 10.0 mi SSW 13.8 mph - N/A   Clear
5:53 AM 28.0 °F 17.0 °F 17.1 °F 63% 30.29 in 10.0 mi SSW 13.8 mph - N/A   Clear
6:53 AM 27.0 °F 13.9 °F 17.1 °F 66% 30.30 in 10.0 mi SSW 18.4 mph - N/A   Clear
7:53 AM 27.0 °F 14.3 °F 18.0 °F 69% 30.30 in 10.0 mi SSW 17.3 mph - N/A   Clear
8:53 AM 32.0 °F 21.2 °F 19.0 °F 59% 30.29 in 10.0 mi SSW 16.1 mph - N/A   Clear
9:53 AM 39.9 °F 31.1 °F 19.9 °F 45% 30.25 in 10.0 mi SSW 17.3 mph - N/A   Clear
10:53 AM 48.0 °F - 19.0 °F 32% 30.23 in 10.0 mi SSW 20.7 mph 29.9 mph N/A   Clear
11:53 AM 53.1 °F - 16.0 °F 23% 30.19 in 10.0 mi SSW 25.3 mph 32.2 mph N/A   Clear
12:53 PM 57.0 °F - 14.0 °F 18% 30.10 in 10.0 mi SSW 31.1 mph 38.0 mph N/A   Clear
1:53 PM 59.0 °F - 14.0 °F 17% 30.05 in 10.0 mi SSW 28.8 mph 36.8 mph N/A   Clear
2:53 PM 60.1 °F - 16.0 °F 18% 30.01 in 10.0 mi SW 24.2 mph 32.2 mph N/A   Partly Cloudy
3:53 PM 60.1 °F - 15.1 °F 17% 30.01 in 10.0 mi SW 21.9 mph 32.2 mph N/A   Clear
4:53 PM 57.9 °F - 14.0 °F 18% 30.01 in 10.0 mi SW 18.4 mph - N/A   Clear
5:53 PM 52.0 °F - 15.1 °F 23% 30.01 in 10.0 mi SW 12.7 mph - N/A   Clear
6:53 PM 45.0 °F 39.3 °F 16.0 °F 31% 30.02 in 10.0 mi SSW 11.5 mph - N/A   Clear
7:53 PM 44.1 °F 37.7 °F 16.0 °F 32% 30.02 in 10.0 mi South 12.7 mph - N/A   Clear
8:53 PM 43.0 °F 36.4 °F 17.1 °F 35% 30.00 in 10.0 mi South 12.7 mph - N/A   Clear
9:53 PM 39.0 °F 32.3 °F 18.0 °F 43% 29.97 in 10.0 mi South 10.4 mph - N/A   Clear
10:53 PM 34.0 °F 25.5 °F 18.0 °F 52% 29.96 in 10.0 mi SSW 11.5 mph - N/A   Clear
11:53 PM 34.0 °F 26.0 °F 19.0 °F 54% 29.93 in 10.0 mi SSW 10.4 mph - N/A   Clear